G7394 Weather Reports


time (UTC)temp
C
wind
direction
speed
KPH
gust
KPH
rain 1hr
cm
rain 24hr
cm
rain mn
cm
humidity
%
barometer
mb
20260510044520 13 0.0 0.0 0.00 0.05 0.00 85 1010.6
20260510043516 14 0.0 0.0 0.00 0.05 0.00 85 1010.8
20260510042531 14 35 0.0 3.2 0.00 0.05 0.00 83 1010.7
20260510041527 15 20 0.0 1.6 0.00 0.05 0.00 82 1010.7
20260510040522 15 165 1.6 4.8 0.00 0.05 0.00 82 1010.5
20260510035518 15 27 0.0 3.2 0.00 0.05 0.05 82 1010.5
20260510034533 15 38 0.0 1.6 0.00 0.05 0.05 81 1010.5
20260510033529 15 0.0 1.6 0.00 0.05 0.05 80 1010.4
20260510032524 15 0.0 0.0 0.00 0.05 0.05 78 1010.4
20260510031519 16 0.0 0.0 0.00 0.05 0.05 76 1010.4
20260510030535 16 0.0 1.6 0.00 0.05 0.05 75 1010.4
20260510025530 16 0.0 0.0 0.00 0.05 0.05 74 1010.3
20260510024525 16 0.0 1.6 0.00 0.05 0.05 73 1010.3
20260510023521 16 0.0 0.0 0.00 0.05 0.05 72 1010.1
20260510022516 17 0.0 0.0 0.00 0.05 0.05 70 1010.2
20260510021532 17 0.0 0.0 0.00 0.05 0.05 68 1010.1
20260510020527 17 0.0 0.0 0.00 0.05 0.05 68 1010.0
20260510015523 17 305 0.0 1.6 0.00 0.05 0.05 68 1009.9
20260510014519 17 0.0 1.6 0.00 0.05 0.05 68 1010.0
20260510013554 17 19 0.0 1.6 0.00 0.05 0.05 68 1009.7
20260510012530 17 0.0 1.6 0.00 0.05 0.05 67 1009.5
20260510011525 17 0.0 0.0 0.00 0.05 0.05 66 1009.2
20260510010520 17 0.0 0.0 0.00 0.05 0.05 65 1009.1
20260510005536 18 0.0 1.6 0.00 0.05 0.05 64 1009.1
20260510004531 18 0.0 0.0 0.00 0.05 0.05 62 1009.0
20260510003526 18 0.0 0.0 0.00 0.05 0.05 60 1008.9
20260510002522 19 0.0 0.0 0.00 0.05 0.05 59 1008.9
20260510001518 20 0.0 0.0 0.00 0.05 0.05 57 1008.8
20260510000553 20 0.0 1.6 0.00 0.05 0.05 56 1008.8
20260509235528 21 0.0 0.0 0.00 0.05 0.05 53 1008.7
20260509234524 22 16 0.0 3.2 0.00 0.05 0.05 50 1008.6
20260509233519 22 139 0.0 3.2 0.00 0.05 0.05 49 1008.6
20260509232535 22 298 1.6 4.8 0.00 0.05 0.05 49 1008.5
20260509231550 22 220 1.6 4.8 0.00 0.05 0.05 47 1008.5
20260509230526 22 291 1.6 4.8 0.00 0.05 0.05 47 1008.4
20260509225521 22 266 1.6 4.8 0.00 0.05 0.05 47 1008.5
20260509224516 23 231 3.2 9.7 0.00 0.05 0.05 46 1008.5
20260509223551 22 169 4.8 9.7 0.00 0.05 0.05 47 1008.5
20260509222547 22 277 1.6 6.4 0.00 0.05 0.05 48 1008.6
20260509221542 22 274 1.6 6.4 0.00 0.05 0.05 47 1008.6
20260509220518 22 294 1.6 4.8 0.00 0.05 0.05 47 1008.6
20260509215533 23 257 3.2 9.7 0.00 0.05 0.05 47 1008.5
20260509214528 22 261 1.6 3.2 0.00 0.05 0.05 47 1008.4
20260509213524 23 249 3.2 4.8 0.00 0.05 0.05 44 1008.5
20260509212519 23 268 4.8 8.0 0.00 0.05 0.05 45 1008.5
20260509211535 23 166 3.2 9.7 0.00 0.05 0.05 45 1008.5
20260509210530 22 187 3.2 9.7 0.00 0.05 0.05 46 1008.5
20260509205525 22 230 3.2 11.3 0.00 0.05 0.05 46 1008.4
20260509204541 22 257 4.8 9.7 0.00 0.05 0.05 47 1008.4
20260509203516 22 251 4.8 9.7 0.00 0.05 0.05 46 1008.2
20260509202531 22 217 3.2 6.4 0.00 0.05 0.05 48 1008.3
20260509201527 22 199 3.2 9.7 0.00 0.05 0.05 48 1008.5
20260509200543 22 294 4.8 8.0 0.00 0.05 0.05 47 1008.7
20260509195518 22 250 3.2 8.0 0.00 0.05 0.05 48 1008.7
20260509194534 21 173 3.2 8.0 0.00 0.05 0.05 50 1008.9
20260509193529 21 208 3.2 8.0 0.00 0.05 0.05 52 1009.3
20260509192525 20 269 4.8 14.5 0.03 0.05 0.05 53 1009.4
20260509191520 20 270 3.2 9.7 0.05 0.05 0.05 55 1009.5
20260509190515 20 184 3.2 12.9 0.05 0.05 0.05 56 1009.5
20260509185531 20 171 4.8 14.5 0.05 0.05 0.05 59 1009.4
20260509184526 19 177 1.6 6.4 0.05 0.05 0.05 62 1009.5
20260509183521 19 270 3.2 6.4 0.05 0.05 0.05 61 1009.9
20260509182517 20 186 3.2 8.0 0.00 0.00 0.00 54 1010.0
20260509181533 20 216 4.8 14.5 0.00 0.00 0.00 52 1010.1
20260509180528 20 217 4.8 16.1 0.00 0.00 0.00 52 1010.4
20260509175524 21 190 3.2 8.0 0.00 0.00 0.00 50 1010.4
20260509174519 20 246 1.6 8.0 0.00 0.00 0.00 50 1010.4
20260509173535 21 181 4.8 11.3 0.00 0.00 0.00 49 1010.3
20260509172530 21 209 8.0 17.7 0.00 0.00 0.00 47 1010.4
20260509171526 20 206 4.8 12.9 0.00 0.00 0.00 49 1010.5
20260509170521 20 240 3.2 8.0 0.00 0.00 0.00 51 1010.5
20260509165517 20 199 4.8 16.1 0.00 0.00 0.00 51 1010.7
20260509164553 20 263 3.2 12.9 0.00 0.00 0.00 52 1010.9
20260509163527 19 253 4.8 11.3 0.00 0.00 0.00 52 1010.9
20260509162542 19 149 3.2 9.7 0.00 0.00 0.00 52 1010.8
20260509161517 19 190 3.2 9.7 0.00 0.00 0.00 52 1010.9
20260509160533 18 176 4.8 14.5 0.00 0.00 0.00 54 1010.9
20260509155527 18 190 4.8 8.0 0.00 0.00 0.00 54 1011.2
20260509154522 18 206 3.2 11.3 0.00 0.00 0.00 54 1011.2
20260509153517 18 197 4.8 9.7 0.00 0.00 0.00 54 1011.3
20260509152613 18 198 4.8 11.3 0.00 0.00 0.00 55 1011.1
20260509151548 17 159 6.4 14.5 0.00 0.00 0.00 55 1011.3
20260509150524 17 170 4.8 11.3 0.00 0.00 0.00 55 1011.3
20260509145519 17 240 4.8 12.9 0.00 0.00 0.00 57 1011.5
20260509144555 17 168 4.8 11.3 0.00 0.00 0.00 58 1011.6
20260509143610 16 165 6.4 19.3 0.00 0.00 0.00 59 1011.8
20260509142525 16 171 3.2 12.9 0.00 0.00 0.00 60 1011.9
20260509141520 15 201 4.8 9.7 0.00 0.00 0.00 62 1011.9
20260509140556 15 159 4.8 9.7 0.00 0.00 0.00 63 1011.9
20260509135531 15 185 3.2 9.7 0.00 0.00 0.00 64 1011.8
20260509134527 15 152 3.2 9.7 0.00 0.00 0.00 64 1011.9
20260509133542 15 223 1.6 6.4 0.00 0.00 0.00 64 1012.1
20260509132517 15 274 3.2 11.3 0.00 0.00 0.00 63 1012.0
20260509131533 15 147 4.8 11.3 0.00 0.00 0.00 63 1011.9
20260509130529 15 157 6.4 16.1 0.00 0.00 0.00 63 1011.8
20260509125524 14 164 4.8 11.3 0.00 0.00 0.00 63 1011.9
20260509124519 14 181 4.8 11.3 0.00 0.00 0.00 63 1011.9
20260509123535 14 162 4.8 14.5 0.00 0.00 0.00 62 1011.9
20260509122530 14 174 6.4 14.5 0.00 0.00 0.00 61 1011.9
20260509121525 14 159 4.8 14.5 0.00 0.00 0.00 60 1012.0
20260509120521 14 175 3.2 9.7 0.00 0.00 0.00 60 1012.0
20260509115516 14 162 6.4 12.9 0.00 0.00 0.00 60 1011.9
20260509114531 14 160 3.2 9.7 0.00 0.00 0.00 59 1012.0
20260509113527 14 149 4.8 16.1 0.00 0.00 0.00 58 1011.9
20260509112522 14 161 4.8 14.5 0.00 0.00 0.00 57 1011.7
20260509111517 14 161 4.8 11.3 0.00 0.00 0.00 57 1011.5
20260509110553 14 158 4.8 11.3 0.00 0.00 0.00 57 1011.7
20260509105529 14 119 1.6 6.4 0.00 0.00 0.00 56 1011.7
20260509104524 14 154 1.6 8.0 0.00 0.00 0.00 53 1011.6
20260509103519 14 162 3.2 8.0 0.00 0.00 0.00 52 1011.5
20260509102535 14 155 3.2 9.7 0.00 0.00 0.00 52 1011.5
20260509101551 14 152 3.2 6.4 0.00 0.00 0.00 52 1011.4
20260509100526 14 173 3.2 9.7 0.00 0.00 0.00 51 1011.3
20260509095521 15 151 1.6 4.8 0.00 0.00 0.00 50 1011.2
20260509094537 15 140 1.6 4.8 0.00 0.00 0.00 49 1011.2
20260509093532 15 141 3.2 6.4 0.00 0.00 0.00 49 1011.3
20260509092528 15 171 1.6 6.4 0.00 0.00 0.00 49 1011.4
20260509091523 15 154 1.6 6.4 0.00 0.00 0.00 48 1011.4
20260509090518 15 158 3.2 8.0 0.00 0.00 0.00 48 1011.5
20260509085534 15 134 3.2 9.7 0.00 0.00 0.00 48 1011.6
20260509084550 15 172 3.2 11.3 0.00 0.00 0.00 49 1011.5
20260509083525 15 162 3.2 9.7 0.00 0.00 0.00 49 1011.7
20260509082520 15 156 3.2 9.7 0.00 0.00 0.00 51 1011.8
20260509081516 15 150 3.2 9.7 0.00 0.00 0.00 53 1011.9
20260509080531 14 139 4.8 14.5 0.00 0.00 0.00 55 1012.0
20260509075526 14 161 4.8 11.3 0.00 0.00 0.00 57 1012.1
20260509074522 14 146 3.2 4.8 0.00 0.00 0.00 56 1012.1
20260509073518 14 162 3.2 9.7 0.00 0.00 0.00 56 1012.2
20260509072553 14 181 3.2 9.7 0.00 0.00 0.00 55 1012.2
20260509071529 14 147 3.2 8.0 0.00 0.00 0.00 54 1012.3
20260509070524 14 165 3.2 6.4 0.00 0.00 0.00 54 1012.2
20260509065520 14 155 3.2 8.0 0.00 0.00 0.00 53 1012.4
20260509064515 14 161 4.8 16.1 0.00 0.00 0.00 52 1012.4
20260509063530 14 142 1.6 9.7 0.00 0.00 0.00 52 1012.5
20260509062526 14 158 1.6 4.8 0.00 0.00 0.00 52 1012.5
20260509061521 14 130 3.2 6.4 0.00 0.00 0.00 51 1012.5
20260509060516 14 152 1.6 9.7 0.00 0.00 0.00 50 1012.5
20260509055552 14 154 3.2 6.4 0.00 0.00 0.00 50 1012.6
20260509054528 14 144 3.2 8.0 0.00 0.00 0.00 50 1012.6
20260509053523 14 165 1.6 4.8 0.00 0.00 0.00 50 1012.7
20260509052519 14 137 3.2 8.0 0.00 0.00 0.00 49 1012.7
20260509051534 14 164 1.6 8.0 0.00 0.00 0.00 49 1012.6
20260509050530 14 136 1.6 6.4 0.00 0.00 0.00 50 1012.6
20260509045525 14 150 3.2 8.0 0.00 0.00 0.00 50 1012.7